GFSFLT2_250_spd_057.txt.gz
Wind_Speed
37 20 16 29 39 44 38 37 45 49 51 56 53 56 58 60 59 60 63 60 64 63 57 55 59 60 63 66 70 68 69 62
37 32 44 37 51 55 46 38 48 51 49 56 62 64 65 66 65 63 56 49 46 52 58 59 60 62 68 72 69 71 63 66
47 57 52 53 65 65 56 52 54 55 53 56 52 53 56 61 60 54 58 59 53 58 56 60 69 67 66 67 63 64 70 72
54 62 64 63 68 73 65 63 63 60 54 57 58 57 58 59 62 56 55 59 60 63 62 63 67 65 65 71 75 73 73 78
59 66 70 68 71 77 70 70 73 68 60 65 63 59 57 57 64 67 67 58 62 63 54 56 63 70 70 68 73 73 73 75
68 70 73 72 77 80 75 74 72 75 71 68 71 70 67 67 63 65 64 72 65 61 61 63 66 70 73 74 75 77 76 78
64 74 76 75 74 73 74 75 75 74 71 71 63 66 65 69 73 72 66 59 63 67 71 76 77 77 78 79 79 76 73 74
62 77 75 73 77 76 75 69 70 66 66 71 72 68 72 60 62 60 60 61 67 71 76 76 77 76 77 75 77 76 78 72
56 69 73 75 68 69 71 67 73 67 69 69 65 58 53 54 56 59 63 69 69 74 74 76 76 74 76 76 77 73 69 68
64 66 65 66 70 72 75 73 72 71 69 72 70 75 70 73 68 73 67 73 71 71 67 74 75 77 74 70 68 67 69 72
48 56 56 67 68 55 69 79 79 73 66 65 63 65 67 68 64 68 72 73 76 73 75 75 78 75 69 67 67 70 73 76
36 41 50 51 61 64 52 61 59 48 48 49 55 55 62 66 65 68 67 67 70 72 73 69 70 67 67 69 72 74 75 77
25 30 28 36 37 45 44 45 43 45 49 50 56 56 58 60 64 68 71 72 72 73 68 66 65 68 70 72 74 76 79 82
26 30 31 31 36 40 44 48 49 49 48 49 53 53 56 60 64 66 67 69 67 66 63 65 69 72 74 75 76 81 83 83
37 38 41 38 44 41 45 49 46 48 48 50 53 57 58 59 61 62 64 62 61 61 65 69 72 73 75 79 80 78 78 83
42 38 39 39 35 31 32 34 42 43 45 46 53 57 57 61 58 56 56 59 62 67 70 71 74 76 77 77 77 81 84 85
38 40 42 43 44 45 48 53 53 54 51 55 60 59 56 51 53 56 60 65 69 73 73 73 74 75 75 77 81 86 90 91
35 42 43 45 49 52 53 52 53 53 53 54 49 49 49 53 57 62 67 73 76 75 75 75 73 72 77 83 89 92 93 93
38 37 40 42 44 46 46 45 41 38 41 43 46 49 53 57 62 68 73 74 74 75 74 74 75 77 83 89 92 93 94 97
37 39 42 44 42 40 36 33 37 38 38 44 52 54 58 64 68 68 71 74 74 73 75 78 82 86 88 91 93 96 99 102

GFSFLT2_250_spd_060.txt.gz
Wind_Speed
49 41 28 14 17 23 23 29 32 37 42 45 49 51 54 52 49 53 54 57 61 62 65 65 65 60 57 57 61 64 69 71
49 51 32 28 37 29 37 30 45 50 49 48 52 52 52 54 55 58 61 63 65 66 68 64 62 59 62 67 68 63 72 64
60 54 45 48 48 51 49 55 55 66 54 52 56 55 53 51 55 59 64 63 58 57 54 55 55 62 59 62 67 71 64 65
62 62 53 53 51 58 68 60 52 62 58 57 55 59 58 54 54 51 51 56 55 55 52 55 60 64 70 66 66 67 68 69
54 54 55 56 61 68 67 64 61 60 62 66 64 61 58 58 61 61 60 61 57 59 60 72 71 75 74 61 67 69 75 74
70 51 56 62 68 69 69 70 67 68 66 64 67 69 69 66 60 64 64 65 72 66 65 68 69 63 65 71 72 74 73 73
54 62 64 64 70 72 67 73 69 71 71 68 66 63 63 65 69 67 69 63 68 71 64 58 64 62 68 71 70 70 75 74
53 67 67 66 71 71 66 72 70 66 63 70 71 73 67 70 67 69 73 72 54 65 59 67 67 70 70 73 76 76 76 78
55 64 71 70 70 73 71 71 71 75 78 71 69 71 73 69 75 71 75 71 70 72 70 73 74 73 72 72 71 75 77 74
54 64 68 73 75 78 72 78 80 76 73 71 70 71 71 72 65 64 69 68 67 72 77 70 74 71 68 74 77 78 70 70
48 55 55 65 73 82 78 76 72 73 73 71 75 72 70 66 69 70 65 74 67 71 73 71 71 75 79 75 75 69 70 71
35 44 45 41 42 53 65 78 77 72 73 75 72 68 63 66 74 67 68 62 65 66 67 68 72 71 71 71 69 69 71 73
28 28 37 48 46 44 52 53 67 55 72 68 59 61 62 66 66 60 66 68 70 65 67 68 69 70 69 66 69 73 75 76
32 31 31 30 32 35 42 48 47 43 50 51 53 57 62 62 60 62 64 63 63 68 70 70 65 64 65 70 75 76 78 80
33 32 32 30 34 34 36 39 42 47 49 49 51 50 52 58 59 59 60 63 66 69 67 62 62 66 71 77 78 79 80 80
38 38 36 36 39 40 42 42 46 48 44 44 46 48 54 59 56 60 64 66 64 64 60 64 67 70 76 79 80 80 82 82
39 43 42 43 43 43 46 48 46 46 51 53 54 55 58 59 60 63 64 62 60 59 65 68 73 77 78 79 80 80 81 84
37 39 42 40 40 41 44 45 47 50 53 52 52 54 56 57 58 60 59 58 61 65 69 73 75 79 80 81 82 82 84 87
36 37 36 37 41 44 44 44 46 47 47 47 48 49 49 49 55 57 60 64 69 73 73 72 81 85 84 84 86 88 90 94
36 37 38 41 41 42 45 46 45 42 39 39 48 49 46 48 55 61 63 69 74 74 77 80 84 88 86 87 89 92 95 98

GFSFLT2_250_spd_066.txt.gz
Wind_Speed
41 43 50 36 30 48 51 47 49 39 44 42 43 52 46 49 51 52 55 54 52 50 55 57 60 60 57 56 55 59 61 57
51 51 47 58 52 60 47 56 37 21 26 32 27 32 35 40 44 45 44 48 51 53 54 58 59 62 64 65 66 65 65 66
55 48 63 62 62 58 66 56 51 40 44 33 29 23 30 39 39 44 49 48 48 51 50 54 57 60 66 69 66 66 68 66
62 55 59 68 67 70 60 63 55 51 52 36 30 32 41 44 49 45 42 49 48 52 57 60 67 66 62 65 64 59 64 65
68 57 53 58 60 63 67 67 67 58 50 44 42 38 37 45 49 45 46 50 50 54 63 65 63 60 58 58 59 66 64 70
69 61 56 53 57 64 63 64 62 56 55 51 48 47 46 46 50 55 59 60 58 61 59 56 57 59 65 69 72 70 67 67
65 64 56 55 56 55 63 62 57 56 56 53 53 51 52 51 59 60 62 66 64 64 64 64 64 62 75 70 66 65 64 68
66 64 58 60 59 60 61 60 60 57 56 50 49 54 58 60 62 62 65 69 75 73 71 70 68 66 65 68 66 69 71 71
64 63 58 58 60 62 61 56 60 58 56 56 54 57 62 65 69 70 70 69 68 63 64 65 65 64 68 71 73 77 78 71
70 69 62 62 65 61 60 60 60 58 62 59 57 61 61 61 64 63 67 70 72 65 61 68 71 74 76 71 74 71 78 76
69 67 66 63 65 69 63 65 64 64 62 62 61 61 67 66 67 66 68 68 74 77 78 69 73 83 75 72 71 73 73 72
67 68 68 70 67 68 70 64 64 69 71 69 69 70 69 76 76 71 69 74 75 75 74 81 85 74 71 73 74 73 67 71
60 59 65 63 66 68 67 66 68 62 69 65 65 68 69 65 67 60 64 63 62 63 70 74 79 79 76 75 71 72 74 79
61 61 63 65 64 66 63 57 64 58 43 47 47 51 50 52 54 55 53 55 63 62 64 68 72 71 73 72 70 69 71 73
54 54 51 53 56 51 46 45 45 44 52 54 52 51 56 54 52 53 54 57 58 60 67 67 66 65 73 73 75 74 76 79
35 40 47 45 42 42 43 41 42 41 41 46 47 46 50 53 56 57 61 60 59 63 64 64 69 71 69 74 75 74 77 78
38 38 37 36 36 37 38 39 41 45 43 45 50 52 56 59 64 62 63 62 65 65 65 67 70 71 69 71 76 78 80 84
44 41 40 43 43 44 46 47 48 49 50 50 53 55 57 60 62 61 62 63 63 66 68 64 64 61 75 76 77 80 83 84
51 50 44 43 44 45 45 46 48 50 49 49 52 53 56 58 64 68 61 64 67 68 67 67 67 65 76 79 79 84 86 90
39 40 42 45 43 41 42 43 46 50 52 53 53 55 58 61 59 63 67 70 67 65 64 63 61 68 79 81 87 91 92 90

GFSFLT2_250_spd_069.txt.gz
Wind_Speed
56 54 34 35 51 40 44 41 42 39 40 37 45 44 44 44 53 58 52 51 59 61 62 64 61 61 60 57 60 59 57 57
59 56 48 53 60 47 34 45 38 41 45 45 49 35 45 39 44 43 41 42 47 52 53 59 58 55 58 55 59 61 60 60
62 58 55 62 65 61 51 52 48 46 50 47 45 28 29 36 33 35 39 43 49 50 51 49 50 52 51 49 56 56 57 57
60 60 55 62 64 68 66 58 49 50 51 56 53 33 31 34 31 37 35 39 49 46 48 49 51 51 54 53 55 54 54 55
61 64 57 68 73 73 64 59 60 59 64 67 55 44 34 34 41 44 41 47 42 44 47 43 50 52 56 59 58 62 61 64
62 63 64 72 64 57 64 64 54 61 60 60 61 57 44 49 41 44 47 47 49 48 49 55 57 60 61 58 64 65 70 66
71 65 62 73 73 61 63 61 69 60 65 64 61 64 57 55 52 50 52 53 51 53 56 61 62 64 67 69 71 69 66 68
80 74 67 64 76 71 67 68 63 61 59 59 61 61 64 64 57 53 51 57 57 57 62 64 67 68 69 66 65 65 65 69
83 81 78 70 74 76 74 73 64 60 60 61 59 59 61 58 56 57 57 56 58 59 61 61 66 68 70 65 68 67 71 71
70 74 65 67 72 75 74 70 66 63 61 62 63 61 59 57 60 59 61 62 63 64 63 68 69 68 70 67 66 70 77 75
62 67 63 62 66 66 64 62 60 66 60 65 64 63 61 61 60 59 62 62 63 68 68 68 66 63 66 71 77 77 77 75
63 64 71 64 65 66 63 63 63 68 67 61 66 65 65 65 65 70 68 71 68 66 66 68 73 72 74 75 74 78 77 75
63 64 62 67 67 65 64 64 60 64 69 67 65 65 69 70 73 72 73 67 70 67 63 62 70 72 69 69 69 70 74 72
56 57 59 61 69 67 66 66 68 65 68 69 72 64 67 56 53 58 61 56 57 58 58 60 61 63 66 65 70 70 78 77
52 54 55 57 58 64 64 65 68 68 68 63 62 60 61 59 63 61 58 62 58 60 62 65 68 71 73 74 78 74 77 80
54 56 53 54 55 58 65 57 57 57 53 55 51 46 41 47 51 54 57 60 65 66 72 72 74 74 73 76 78 80 84 79
59 58 54 47 46 47 50 52 46 45 44 46 42 42 48 53 54 54 60 61 63 66 68 73 74 75 75 73 75 76 73 75
36 39 41 44 43 45 45 40 44 46 50 52 51 53 56 55 59 59 62 64 68 69 70 74 78 75 72 71 73 74 77 78
40 39 39 41 40 42 41 44 48 50 53 58 56 57 59 61 63 64 65 68 70 72 74 72 72 71 72 76 73 77 78 82
40 45 47 48 46 45 48 49 48 49 52 57 60 58 59 59 61 63 64 66 69 71 72 71 69 69 74 76 75 78 82 85

GFSFLT2_250_spd_072.txt.gz
Wind_Speed
68 58 53 47 45 37 38 57 47 47 37 37 41 34 34 33 35 36 40 43 48 52 54 52 54 60 61 61 57 57 56 54
70 62 60 58 48 54 52 41 60 56 48 44 38 37 40 40 42 41 41 36 40 46 48 49 42 46 49 48 48 47 52 54
67 66 58 57 57 58 48 45 55 54 51 40 41 44 43 38 30 29 39 38 36 41 39 38 32 36 48 50 48 52 52 49
61 64 58 52 46 50 55 65 61 56 46 41 37 35 33 27 31 31 31 36 38 39 41 41 41 41 42 43 47 50 51 53
64 71 59 56 52 55 68 62 62 56 54 49 42 46 54 43 36 31 33 38 43 42 41 42 45 40 44 45 49 54 55 58
60 64 65 65 57 55 63 58 57 60 49 49 53 53 57 51 47 43 40 42 49 50 48 45 47 49 50 51 54 57 60 62
60 67 69 68 62 53 56 48 55 60 58 54 56 61 59 52 57 59 54 52 51 52 54 53 51 53 57 56 58 60 63 64
64 68 69 65 63 63 60 52 57 53 58 58 56 44 51 56 57 55 60 63 65 61 62 58 55 52 55 58 60 61 66 69
71 67 70 67 66 68 67 62 56 53 57 58 58 59 64 63 60 58 61 60 64 65 66 65 61 61 63 65 69 69 71 71
66 72 69 67 67 66 66 64 62 58 57 57 54 56 52 55 54 66 66 67 68 70 67 67 68 67 69 72 74 75 74 75
72 78 78 72 70 66 68 65 64 64 61 66 66 65 57 56 54 56 61 62 64 67 70 73 72 75 75 77 74 76 73 73
60 81 82 81 74 71 71 69 67 64 67 63 62 70 57 58 61 62 64 65 68 70 75 78 77 80 78 75 73 70 72 72
49 56 82 81 81 72 71 71 71 71 67 67 66 66 64 59 68 67 66 66 69 73 74 66 65 68 67 68 69 68 67 67
52 56 55 56 71 72 78 69 62 65 70 72 70 68 64 65 69 72 72 70 63 70 64 63 63 63 66 67 70 72 75 75
56 59 58 55 55 60 66 72 66 64 61 69 70 69 75 78 71 68 64 68 63 64 67 67 69 71 74 76 73 74 79 80
45 46 52 48 50 53 53 58 59 57 61 58 65 62 65 58 69 71 64 64 66 62 61 63 65 67 69 71 71 75 74 76
33 43 46 50 52 48 48 49 52 55 57 54 57 52 57 52 58 57 61 63 64 65 62 64 66 67 68 71 71 74 77 78
33 32 37 41 40 38 43 43 41 44 46 48 53 51 52 55 60 61 63 67 65 64 65 65 65 65 69 70 72 73 72 70
29 33 36 38 41 46 45 43 44 46 45 47 49 51 52 56 59 60 62 63 63 63 64 65 64 65 64 63 67 72 75 77
25 28 31 37 35 36 38 42 44 45 46 48 51 55 54 53 54 57 59 63 66 65 66 61 56 57 62 70 74 77 80 81

GFSFLT2_250_spd_075.txt.gz
Wind_Speed
56 49 46 46 42 33 24 26 36 38 39 29 31 34 32 25 31 27 21 24 25 30 36 42 46 46 50 50 48 51 49 46
57 60 57 56 46 38 39 32 49 57 46 36 33 40 37 35 37 28 29 34 33 32 34 35 36 39 40 44 41 40 43 41
64 66 59 54 48 47 44 40 49 49 55 43 47 44 44 41 33 32 35 37 35 35 40 38 36 35 36 38 39 41 42 41
63 67 61 56 53 48 50 49 49 54 45 38 45 43 43 37 34 28 18 34 26 27 33 37 33 31 36 37 42 43 44 45
63 67 63 61 53 49 57 50 51 52 52 47 49 49 41 36 37 35 35 27 27 27 32 38 37 39 39 39 42 45 48 48
63 66 65 59 61 47 48 47 49 57 58 49 58 50 48 47 43 43 41 39 32 36 38 44 45 45 44 47 51 52 53 56
63 67 63 59 58 52 53 55 49 53 52 56 47 47 48 51 53 53 49 46 47 48 48 55 58 57 58 62 62 61 62 65
62 57 62 61 59 53 53 53 53 50 40 41 50 55 51 46 42 43 44 49 50 50 50 52 59 60 60 63 67 68 66 68
62 57 54 58 59 57 56 54 54 53 45 45 42 47 44 52 51 51 54 51 49 51 51 55 57 60 64 69 72 70 71 76
66 55 57 54 60 61 63 58 53 53 50 46 48 52 48 50 50 57 56 57 51 61 52 56 62 67 71 70 73 75 74 77
65 64 58 59 59 66 67 57 59 56 61 56 52 48 53 57 53 56 51 56 54 54 52 57 60 64 64 66 67 71 75 78
65 62 68 64 61 63 66 61 59 62 64 64 65 63 63 60 57 51 53 46 50 53 58 59 60 64 67 67 71 78 72 71
59 62 76 63 64 62 65 66 63 64 65 68 72 70 71 68 65 62 60 67 68 66 65 68 71 77 72 66 73 75 71 68
52 54 67 64 68 68 67 67 65 62 67 68 67 67 64 60 70 66 65 68 68 68 72 70 68 67 67 64 63 66 67 70
45 47 42 55 62 69 71 76 72 72 70 67 69 69 71 71 64 59 62 67 71 64 70 65 59 58 64 60 61 64 67 71
43 50 50 46 53 63 72 71 65 59 62 66 68 63 63 55 64 62 62 59 65 59 56 57 58 57 61 63 66 64 69 67
30 38 49 50 52 56 59 60 61 64 59 52 60 65 60 63 62 60 57 65 62 60 68 61 65 65 65 63 62 59 60 61
30 29 39 44 49 52 54 58 57 58 59 61 56 57 55 53 58 60 56 60 60 62 69 67 63 60 60 59 58 56 53 54
28 34 40 44 42 42 41 47 47 47 48 48 52 53 53 53 52 54 58 60 59 61 62 65 63 58 56 52 48 54 60 63
22 30 35 39 40 40 40 39 40 41 45 45 45 45 50 50 51 50 51 50 49 54 55 58 58 52 56 59 61 64 65 74

GFSFLT2_250_spd_078.txt.gz
Wind_Speed
38 47 53 59 49 52 43 41 50 42 42 33 26 22 19 23 24 26 25 25 23 17 17 16 17 21 24 26 31 34 37 39
44 55 64 62 55 54 45 52 48 45 39 37 34 16 20 24 26 27 30 30 21 24 27 28 29 25 24 22 22 24 30 31
42 56 53 61 52 52 50 46 48 44 40 38 28 23 28 24 27 30 28 25 20 24 32 38 28 21 21 21 21 25 30 29
40 48 54 54 55 56 49 44 49 47 40 39 36 26 30 27 31 35 29 27 17 23 36 37 29 20 22 22 23 25 29 31
43 52 61 56 61 59 50 49 44 44 42 38 37 36 38 40 33 24 23 18 30 32 28 30 29 25 27 29 32 35 37 39
41 52 60 59 62 56 53 49 40 41 34 42 41 33 35 38 43 39 29 34 39 37 32 31 32 36 33 41 40 45 45 49
38 54 60 61 61 53 50 44 48 42 41 40 39 41 45 40 44 47 39 42 45 46 47 44 41 45 46 48 49 50 53 54
44 45 62 64 61 51 49 43 42 47 40 39 43 42 50 55 56 51 48 46 51 51 53 49 47 51 49 49 53 56 54 61
43 44 56 66 57 56 51 45 44 49 39 43 53 51 54 52 51 55 55 46 43 43 44 46 49 51 51 54 56 58 58 63
43 47 48 65 61 55 51 50 47 50 53 49 44 51 48 52 50 46 42 45 46 50 53 58 54 51 50 56 60 63 55 54
41 50 45 62 64 60 57 50 52 50 54 60 53 51 50 45 58 54 57 55 54 53 54 47 49 51 45 48 53 53 59 61
35 45 56 63 60 56 58 61 55 55 55 58 58 55 50 57 54 57 56 55 57 55 51 50 51 55 61 57 60 64 64 64
28 39 53 60 56 57 53 57 59 58 54 59 60 58 58 57 56 60 65 66 61 60 62 59 59 65 61 62 65 68 58 58
27 35 48 56 59 53 54 55 57 58 54 60 59 58 64 64 66 66 63 64 67 72 74 73 62 57 55 54 56 56 60 57
22 28 40 50 50 49 51 54 62 60 62 59 61 63 66 66 62 62 66 73 72 66 57 55 53 59 52 53 53 58 57 62
25 25 31 39 38 43 47 46 51 57 63 63 62 61 63 62 62 64 65 61 60 57 55 52 52 52 53 55 57 56 57 58
21 24 27 30 33 40 39 36 43 52 56 57 57 58 62 62 56 56 53 55 53 57 55 53 57 57 56 56 57 56 53 53
23 23 25 29 36 38 36 34 37 47 55 56 58 60 58 54 56 54 57 52 51 58 58 57 59 62 61 58 52 54 46 44
20 22 25 26 30 35 38 37 39 39 42 47 47 50 48 47 45 45 48 51 55 56 59 61 59 62 64 52 46 48 52 59
15 21 26 29 29 30 32 33 34 35 38 39 39 40 42 43 48 50 50 51 52 57 56 62 63 61 65 67 61 57 60 64

GFSFLT2_250_spd_084.txt.gz
Wind_Speed
35 28 36 33 29 35 48 53 49 45 44 60 47 34 37 32 41 45 44 50 43 38 29 21 23 25 23 22 14 17 14 18
24 28 33 35 31 33 43 47 60 53 58 52 39 28 24 25 28 34 32 41 36 28 19 24 20 15 12 10 14 16 16 17
18 20 32 32 29 35 42 50 67 63 57 46 42 27 18 13 24 32 27 29 23 22 26 26 26 15 16 21 15 17 18 18
16 18 29 27 35 45 49 56 68 59 54 42 42 29 24 26 29 35 26 11 16 20 25 29 25 20 20 23 25 19 19 20
15 20 24 28 39 49 55 55 64 69 53 40 37 36 34 35 35 26 30 18 18 17 23 26 26 22 22 23 26 24 23 21
17 23 24 25 38 52 53 60 61 64 64 60 43 39 35 42 41 35 25 18 19 28 28 28 31 25 26 27 30 34 29 30
17 23 25 25 37 50 56 55 50 57 62 54 48 42 39 46 43 27 26 25 22 37 34 32 37 34 36 39 36 37 40 44
19 22 25 24 34 49 49 54 52 46 50 54 43 48 49 48 43 39 35 28 28 41 38 35 40 40 44 45 46 48 49 50
25 19 22 32 29 41 53 50 56 49 53 49 44 46 49 51 53 45 37 36 35 44 47 46 51 48 46 47 50 52 54 58
16 21 24 25 29 26 34 45 50 50 49 47 47 51 53 56 59 41 42 42 40 44 50 50 49 50 51 50 50 54 59 56
19 20 24 21 26 28 24 40 49 53 54 53 51 50 48 51 60 53 51 45 42 49 45 46 51 51 54 53 56 62 58 61
30 23 21 24 26 28 27 27 45 47 46 49 52 53 56 46 44 43 46 49 45 48 50 53 54 55 60 63 64 63 60 59
31 26 25 23 26 30 28 29 38 49 43 52 54 54 48 45 49 47 49 51 51 53 58 61 64 61 63 64 65 59 58 56
27 28 25 23 32 32 32 35 38 44 44 50 51 48 49 43 47 49 47 50 55 58 58 63 64 65 65 63 62 61 57 56
21 28 27 23 35 39 40 38 39 43 50 49 47 53 49 48 50 57 53 54 53 55 61 60 59 60 63 66 64 60 61 63
18 27 27 30 35 44 44 45 47 49 49 54 55 51 51 53 54 55 56 57 54 57 58 59 59 56 55 55 58 60 59 62
13 24 28 35 37 43 47 47 49 52 51 50 54 51 53 54 54 55 58 54 55 51 54 56 56 52 52 55 63 58 56 54
11 14 24 40 42 47 46 45 49 50 50 50 51 54 53 53 51 52 51 53 53 55 56 55 53 56 64 63 57 54 58 57
11 18 25 33 36 47 47 43 46 44 44 47 46 47 47 47 51 54 52 50 52 51 50 50 51 53 54 56 55 56 57 52
16 18 21 33 33 41 40 43 46 43 40 48 44 43 46 45 46 45 46 47 49 50 54 54 53 55 56 59 59 58 50 44

GFSFLT2_250_spd_090.txt.gz
Wind_Speed
47 42 46 40 37 34 33 40 51 62 57 56 44 48 48 30 29 31 31 34 34 29 25 26 37 43 48 48 47 51 38 39
41 37 44 33 31 25 30 41 56 68 63 58 54 61 46 39 33 34 39 35 33 32 31 32 38 48 51 50 45 34 30 30
38 35 37 29 28 22 29 50 65 67 58 53 57 60 48 35 35 36 41 42 23 31 30 31 29 37 46 41 29 25 25 21
37 32 30 28 23 18 32 59 62 66 61 51 54 48 40 40 38 37 31 29 27 31 31 32 30 31 36 27 25 27 22 21
34 30 27 27 25 19 30 53 66 65 57 58 55 48 47 46 44 43 16 18 20 22 23 27 25 29 30 29 31 30 26 18
32 31 25 28 26 22 27 45 63 60 59 58 57 51 47 51 47 38 26 19 22 17 20 19 22 26 27 32 34 33 29 24
30 32 25 31 27 24 23 40 61 60 61 61 57 52 50 50 46 34 31 26 23 26 20 26 14 23 28 34 34 36 29 20
31 30 29 31 31 27 30 32 47 63 63 62 56 55 53 49 30 33 32 24 26 26 22 22 16 19 26 27 30 30 33 30
29 28 28 34 38 29 28 38 40 63 64 64 63 63 59 55 46 31 32 30 32 34 24 28 29 28 26 27 31 33 35 34
29 27 27 37 40 33 27 40 41 50 69 69 67 64 61 52 43 40 34 35 36 36 31 29 29 26 29 32 35 37 40 40
28 26 28 39 40 37 34 33 47 52 47 67 71 59 60 53 44 46 39 37 38 42 38 36 37 34 37 36 42 39 42 46
29 25 29 41 38 44 39 35 43 54 52 63 61 57 59 58 60 47 48 43 34 42 48 34 41 43 41 42 46 49 47 52
30 21 23 41 51 45 44 40 39 49 58 65 63 63 60 51 55 53 50 51 41 48 48 44 47 48 46 47 48 50 49 52
32 26 25 36 48 46 49 44 40 44 56 62 71 61 70 64 56 54 53 46 49 48 55 51 48 53 52 50 50 52 52 49
33 25 29 28 45 49 51 46 42 41 50 51 57 67 66 62 62 60 60 55 48 48 51 54 56 57 57 52 50 44 47 52
35 24 26 24 37 49 48 48 46 42 44 53 55 53 62 62 55 60 57 51 50 51 50 54 54 53 55 52 53 53 58 58
34 27 22 22 27 45 47 47 50 47 41 40 45 48 49 52 50 47 50 49 52 57 56 58 56 53 54 54 56 57 58 59
31 28 20 17 22 39 44 48 50 48 46 42 42 43 43 46 47 52 51 53 59 56 55 56 55 55 56 58 58 61 60 62
26 28 19 15 24 34 36 43 48 48 46 45 45 47 46 48 51 54 53 51 56 56 58 59 61 60 59 59 61 64 65 66
25 28 19 19 25 32 36 40 49 47 45 44 45 51 49 52 55 56 55 57 62 63 61 59 57 58 60 62 63 65 69 71

GFSFLT2_250_spd_093.txt.gz
Wind_Speed
43 43 45 44 42 41 42 41 39 40 52 58 48 52 50 44 41 44 36 33 31 27 25 18 14 16 26 30 30 37 41 36
43 44 42 41 42 40 36 36 37 40 51 60 56 51 47 50 48 49 44 35 30 30 26 22 21 22 17 26 34 34 35 39
39 41 39 41 41 38 31 30 33 39 59 61 53 51 50 52 49 48 31 31 28 27 22 26 27 23 27 29 38 39 40 39
37 38 39 39 40 34 25 24 32 39 65 67 57 54 51 49 47 45 37 27 34 31 31 27 26 28 29 37 43 46 44 40
36 38 38 37 38 33 21 23 30 41 66 67 65 60 56 50 51 42 33 30 34 31 28 31 32 31 30 39 43 45 44 32
37 38 38 35 33 32 22 23 27 39 59 70 67 61 59 56 51 47 43 35 29 28 20 24 22 26 27 32 31 35 35 34
36 39 38 35 32 33 26 26 31 43 55 66 66 61 52 49 48 48 41 34 18 29 28 22 24 18 24 27 31 32 30 31
36 40 38 37 32 31 30 24 37 48 54 50 60 56 47 51 53 49 44 38 25 30 21 23 26 21 25 25 26 31 34 33
36 37 37 36 33 30 31 25 41 49 56 51 46 49 53 53 55 44 40 40 34 27 25 25 27 23 15 17 23 25 28 36
37 35 35 37 33 30 34 30 39 46 57 54 56 51 53 59 61 48 46 41 41 37 25 27 26 25 20 21 26 25 25 28
36 34 34 38 34 29 37 34 42 45 50 63 57 57 57 57 57 48 40 43 37 32 29 34 28 26 26 28 29 31 33 34
34 32 31 34 34 30 39 37 40 44 47 51 64 62 61 61 53 50 52 42 40 36 36 38 40 35 31 32 39 41 43 43
30 30 33 28 28 32 38 41 41 47 43 44 56 63 64 61 55 57 54 54 48 37 39 40 43 41 42 41 42 43 44 44
27 27 34 34 24 28 35 44 45 44 51 49 51 61 63 64 58 54 54 58 52 46 43 42 48 47 48 50 47 46 43 45
24 27 31 36 32 28 36 47 46 44 45 50 53 52 62 62 60 57 56 56 51 51 49 49 45 50 46 53 52 52 48 50
24 26 31 36 31 26 30 43 51 47 45 43 48 54 54 59 60 64 59 56 57 59 54 54 46 46 48 54 56 52 54 56
23 26 30 36 31 21 21 40 46 49 41 41 41 46 55 56 61 63 63 61 60 54 57 61 53 53 47 49 55 56 53 53
22 25 29 35 28 23 22 29 42 43 47 43 42 46 46 50 62 65 63 71 67 66 55 55 53 54 52 51 54 56 55 57
22 22 28 29 26 22 20 22 37 39 44 44 43 45 48 53 52 54 56 58 58 57 54 50 49 51 56 58 59 59 60 61
22 21 26 24 25 20 18 21 31 35 38 43 46 42 41 44 49 51 53 48 53 57 52 52 51 53 56 56 60 63 65 63

GFSFLT2_250_spd_096.txt.gz
Wind_Speed
39 39 44 45 44 42 40 38 41 42 43 45 49 47 49 36 26 30 36 31 34 26 22 21 17 15 15 18 23 26 20 19
40 41 43 40 39 40 41 42 37 36 39 45 48 48 53 44 37 19 37 42 35 26 22 21 16 16 21 15 18 24 31 37
41 41 40 39 36 38 42 42 38 37 40 43 46 48 49 44 42 46 42 44 35 35 25 20 16 22 25 21 22 26 27 32
39 40 41 42 38 39 40 38 38 34 33 38 44 47 54 49 44 41 49 42 33 29 33 26 16 20 23 27 24 29 38 40
36 37 41 43 41 39 39 37 35 29 29 34 43 55 59 50 47 44 55 42 33 38 36 31 22 30 30 29 32 34 40 38
38 38 39 43 44 42 42 36 31 26 24 29 41 56 61 60 54 56 48 41 42 29 29 18 22 30 34 35 35 42 43 39
39 39 38 41 42 41 43 38 29 25 21 22 37 54 60 64 52 41 37 39 39 28 24 26 20 24 30 20 31 33 41 41
40 41 43 41 40 41 41 37 29 23 21 28 32 54 55 55 51 50 52 45 35 28 26 25 26 32 34 31 28 27 30 29
39 40 40 40 41 42 41 36 29 24 28 35 36 49 60 58 52 48 47 46 40 33 32 28 25 29 27 29 31 30 28 26
40 40 40 39 39 41 42 33 29 29 29 43 41 42 53 59 61 51 46 42 36 35 36 29 27 30 30 25 26 24 24 24
39 42 41 38 34 37 40 31 28 32 32 42 48 44 47 63 55 50 48 44 41 36 38 33 28 29 30 32 27 26 25 24
38 39 37 32 33 32 36 33 26 36 34 40 49 51 51 45 54 60 48 47 45 41 42 40 40 33 35 35 36 33 31 30
37 35 30 30 31 32 25 32 26 38 38 44 46 56 52 52 54 53 55 49 47 43 46 37 41 38 38 37 41 44 44 33
37 32 29 28 30 30 29 25 27 37 41 44 46 51 58 58 56 54 50 53 54 46 45 46 39 44 47 49 47 48 45 45
34 29 29 29 30 30 28 26 27 33 42 45 49 48 52 56 59 58 57 55 56 54 53 46 47 42 45 46 48 48 48 46
32 30 28 28 29 29 27 26 24 32 43 45 49 45 45 51 45 58 54 58 57 58 56 58 56 52 49 44 44 44 51 50
31 29 28 27 28 29 28 23 22 28 39 44 47 46 47 44 50 52 52 53 61 62 62 58 57 59 54 52 55 47 48 52
28 28 26 26 26 29 31 25 15 21 34 42 42 42 43 46 49 49 54 56 60 60 61 64 60 60 59 61 57 55 56 51
25 24 24 24 24 28 31 26 18 13 24 34 38 35 39 38 51 54 52 57 59 58 62 62 62 62 64 59 60 63 64 60
25 25 27 26 26 23 27 27 17 14 14 27 31 37 38 39 43 51 55 56 58 62 63 63 70 70 66 69 68 67 65 58

GFSFLT2_250_spd_099.txt.gz
Wind_Speed
46 45 43 40 40 40 36 36 34 35 37 40 41 46 44 38 40 46 41 33 27 23 24 22 28 24 19 13 19 23 28 30
42 42 41 40 40 41 35 34 33 36 38 37 42 41 42 38 42 53 44 35 30 20 24 19 23 20 11 15 14 15 19 23
38 39 38 37 38 39 33 34 36 37 39 38 40 35 37 39 46 55 41 36 32 26 24 25 22 18 13 15 19 18 21 21
35 35 37 38 37 38 36 34 36 36 39 38 38 34 37 40 47 53 46 36 26 32 26 28 25 16 19 13 20 20 25 24
36 33 38 40 41 38 36 36 34 34 38 36 37 32 33 38 46 51 55 34 38 32 29 32 31 30 23 21 22 23 27 30
36 35 36 38 39 38 38 37 35 35 34 34 33 31 29 39 50 49 48 47 41 34 27 27 33 34 32 33 30 33 33 30
38 38 38 38 38 38 36 36 35 34 32 28 29 22 25 41 46 45 42 40 39 27 32 32 28 22 21 29 32 32 31 27
40 38 40 39 39 39 40 36 35 34 31 24 23 15 17 52 49 45 43 41 39 40 36 34 32 28 19 21 21 25 29 28
39 40 39 39 40 40 40 36 36 35 26 23 20 23 23 46 56 54 47 44 39 34 36 37 30 26 26 25 29 29 28 31
38 39 36 38 39 37 37 35 36 35 21 23 26 29 30 51 52 62 54 46 38 43 41 33 30 28 28 25 30 29 35 32
38 37 35 36 34 32 30 33 38 32 20 28 34 35 35 46 50 52 59 53 45 43 42 36 34 36 36 28 33 31 35 31
35 36 32 34 35 29 29 29 32 30 21 32 37 40 40 50 54 51 50 48 57 51 40 41 39 38 36 35 34 34 36 33
33 32 28 31 31 28 28 26 30 34 23 34 37 46 45 47 51 55 57 56 50 47 40 38 41 42 41 33 34 34 37 36
31 29 28 31 30 28 29 27 31 32 25 30 40 47 45 45 43 46 55 55 55 48 44 43 41 40 45 43 40 41 35 37
31 28 27 31 28 27 26 26 29 30 28 28 45 46 53 48 48 52 47 52 58 50 44 43 46 45 42 41 45 44 41 40
31 29 26 31 25 25 25 26 30 27 24 29 47 49 51 56 58 48 49 49 53 51 52 50 50 51 53 47 43 45 44 49
32 31 24 27 24 25 24 25 29 23 23 24 45 49 48 48 57 58 56 53 52 50 56 59 58 58 55 54 52 50 53 51
35 28 23 24 24 24 23 24 26 24 18 21 34 49 49 47 48 56 57 53 53 54 55 55 59 60 63 58 57 57 57 51
36 26 24 22 25 23 25 23 25 23 15 15 25 42 43 46 45 47 51 54 49 50 56 58 62 65 61 62 61 59 59 62
36 29 27 23 24 23 26 25 22 23 10 5 17 30 36 46 44 45 46 52 50 52 53 55 57 63 66 65 64 63 66 67

GFSFLT2_250_spd_102.txt.gz
Wind_Speed
51 51 49 50 46 40 35 36 36 33 34 32 33 35 37 40 39 41 41 40 37 33 35 37 32 33 29 32 27 29 20 22
44 44 46 45 42 35 34 35 34 31 29 30 32 30 34 35 35 36 36 36 41 37 35 27 28 18 20 23 22 16 19 21
47 42 43 38 38 35 35 37 36 31 31 32 34 31 35 31 32 35 39 41 47 44 33 27 23 19 20 17 14 14 14 18
44 39 38 37 38 36 34 34 34 33 32 31 32 34 35 25 26 35 43 46 51 45 40 26 25 22 22 20 19 12 17 20
45 41 34 38 39 34 35 36 32 32 32 33 32 32 33 23 25 36 45 53 46 41 28 31 33 22 22 16 17 15 19 20
48 45 35 36 37 36 36 36 34 32 32 33 31 32 29 25 27 39 48 51 46 37 35 30 26 30 25 21 21 21 20 25
45 47 38 35 36 35 38 37 34 33 34 30 30 30 27 25 24 40 49 53 49 36 34 36 33 33 27 28 25 23 24 30
45 45 44 40 36 35 38 37 35 33 31 27 33 27 26 20 19 41 47 51 46 38 38 34 29 28 20 24 20 23 29 27
45 44 44 40 34 35 37 38 34 30 27 28 31 24 22 16 21 44 50 49 44 43 38 31 32 29 29 27 23 22 20 21
45 42 42 41 35 33 39 36 34 25 27 29 26 24 21 26 38 45 49 44 43 38 40 38 33 30 27 26 24 25 28 25
45 40 41 38 33 33 37 36 29 25 27 27 23 27 27 35 40 50 51 43 41 42 35 38 37 32 30 28 29 24 23 30
43 37 38 35 31 33 35 34 27 25 27 27 24 32 32 44 46 50 52 53 42 43 40 34 34 36 30 28 28 31 30 32
49 35 38 32 31 32 33 33 26 27 29 32 25 34 39 51 51 52 52 52 47 46 38 39 44 43 36 35 34 37 36 37
47 35 39 31 30 30 32 30 25 25 28 32 27 31 47 45 52 55 53 54 49 49 48 48 42 38 33 34 34 41 38 37
46 35 39 29 29 29 32 27 25 26 29 33 28 31 49 49 47 55 52 49 51 50 55 54 48 44 39 42 39 43 47 46
44 35 37 28 28 30 27 22 23 27 29 33 28 31 49 52 50 47 59 57 58 56 52 46 51 45 44 44 42 42 39 38
41 36 36 29 26 31 24 22 23 27 28 31 24 30 49 54 54 49 55 65 64 54 58 55 49 52 47 47 49 49 48 44
37 39 35 30 27 30 23 22 24 25 28 30 21 28 48 60 56 49 57 54 56 58 54 51 55 54 50 50 51 55 55 53
36 39 34 31 29 28 22 24 23 25 27 28 21 24 38 60 62 56 57 54 53 53 51 53 53 54 57 57 61 64 61 60
36 39 37 34 32 29 21 20 20 20 24 25 19 22 34 55 61 62 57 55 53 52 52 51 55 56 58 60 60 62 65 64

GFSFLT2_250_spd_105.txt.gz
Wind_Speed
43 41 41 43 43 42 40 35 32 30 31 32 31 32 28 29 32 37 40 44 41 44 45 39 36 34 34 29 23 25 26 27
44 37 38 42 42 41 37 31 29 31 33 32 30 31 32 36 33 32 36 39 40 39 38 34 36 43 40 36 32 30 27 25
44 42 44 44 42 41 39 33 30 32 32 34 32 32 32 36 37 36 36 36 37 38 36 40 38 37 38 26 25 25 27 26
45 45 48 48 47 43 39 33 33 32 32 33 33 32 32 30 29 29 36 37 39 39 41 43 36 40 25 24 23 23 22 19
45 47 49 49 48 44 37 35 33 34 33 35 34 34 34 30 27 28 31 33 43 45 47 42 36 36 32 30 25 21 18 19
46 47 52 50 46 41 37 34 33 34 34 38 36 35 32 30 26 30 31 32 45 47 48 38 39 34 30 32 27 24 21 16
50 50 54 46 43 41 36 35 35 34 35 36 39 35 31 30 27 29 32 34 46 50 51 47 43 38 30 32 28 22 21 22
51 52 53 46 38 39 36 32 33 33 36 36 36 33 29 28 26 27 30 34 51 54 47 35 32 41 35 36 29 25 24 22
50 53 52 48 41 43 34 31 32 33 35 37 34 26 28 25 24 26 28 39 56 47 44 40 35 37 39 38 28 27 28 22
54 56 50 44 46 42 34 34 31 32 33 35 26 23 23 21 22 20 22 47 56 48 43 39 35 35 34 38 28 24 25 25
60 53 45 40 43 43 35 32 30 32 31 33 25 21 22 21 23 20 32 54 50 48 48 41 37 34 32 34 31 29 27 24
52 46 42 40 41 39 33 32 30 32 31 29 26 21 22 25 27 33 39 53 48 46 44 45 40 39 34 32 36 31 32 24
50 48 39 40 40 36 34 33 31 32 30 27 23 23 22 26 31 48 49 51 54 53 47 44 38 38 39 35 32 35 31 28
52 45 39 37 41 33 34 34 31 32 31 27 23 26 24 26 35 56 51 51 55 50 47 43 40 39 37 39 31 34 35 31
52 48 42 36 45 35 33 33 32 30 27 25 24 28 30 26 39 57 59 56 55 48 39 48 46 40 38 41 37 43 34 35
52 46 42 35 45 36 32 31 31 28 25 24 25 30 34 27 45 59 62 59 56 54 54 51 47 46 46 39 37 34 37 38
53 47 43 34 42 35 33 29 28 27 25 24 25 30 34 28 52 56 66 57 66 57 55 54 56 53 46 41 41 40 41 46
53 48 45 33 40 34 34 29 26 27 27 28 28 32 33 28 49 61 58 61 64 60 54 56 60 53 50 48 44 43 40 46
52 52 45 36 38 35 34 30 25 23 21 24 26 31 30 29 48 58 62 62 62 68 59 60 55 50 57 49 48 52 52 54
55 53 47 37 37 38 35 33 26 23 18 22 24 28 27 23 43 60 63 64 62 69 66 57 58 49 51 59 57 56 55 57

GFSFLT2_250_spd_108.txt.gz
Wind_Speed
54 49 48 47 39 42 34 37 37 33 31 28 30 29 32 34 37 36 29 35 38 42 44 28 43 37 37 39 40 39 40 43
53 47 45 46 43 44 41 41 39 34 28 26 30 31 35 35 37 40 42 33 30 43 37 39 33 35 35 37 37 33 27 21
50 47 44 42 46 49 43 40 37 33 28 27 27 32 33 35 38 40 44 39 38 36 39 41 37 36 35 34 36 38 35 34
46 46 43 44 46 48 47 41 38 33 28 30 29 33 33 33 38 44 42 44 43 36 36 41 41 41 32 35 33 38 33 30
49 49 47 44 46 46 48 40 38 33 30 30 30 33 35 35 37 39 39 42 41 45 43 41 45 40 37 33 30 35 28 30
50 51 44 46 46 45 48 44 40 39 30 32 32 34 35 34 35 38 38 37 37 37 42 45 44 42 42 35 38 30 28 25
53 47 47 48 45 46 50 46 39 42 31 35 33 33 35 34 36 36 37 37 36 35 40 50 49 44 40 37 31 35 30 29
50 51 45 46 47 46 48 43 43 37 32 34 34 34 34 34 34 33 35 34 35 33 44 51 50 44 41 40 38 36 32 27
54 49 45 47 48 49 49 41 42 35 32 33 34 33 32 30 31 31 31 32 35 36 42 54 51 46 43 39 36 37 35 30
55 50 47 46 46 51 48 45 40 37 32 32 31 32 29 29 27 26 25 29 31 33 46 53 46 46 42 40 34 35 34 32
49 49 49 50 52 48 48 47 43 38 30 31 32 31 29 26 26 20 18 16 23 27 47 48 44 46 43 40 40 40 27 30
60 59 58 53 49 47 50 46 39 37 30 31 32 32 28 26 24 19 17 19 21 35 46 40 42 43 44 42 41 42 33 30
59 59 59 52 47 47 47 46 39 38 31 31 32 33 29 25 20 20 25 28 27 43 52 48 46 43 44 42 38 39 38 34
52 55 55 51 48 48 50 47 39 39 33 31 32 33 30 26 20 22 25 36 35 49 53 51 48 47 44 36 37 34 34 39
53 54 53 52 45 48 50 49 39 38 34 31 32 32 29 28 25 22 27 39 48 51 52 51 46 47 48 44 42 40 38 34
56 56 51 52 45 44 48 46 40 37 35 31 33 30 28 30 27 24 30 45 57 51 56 53 54 49 47 42 39 41 36 43
56 57 53 52 48 42 45 46 39 37 35 31 33 29 28 32 31 28 30 48 64 61 57 60 52 47 47 46 37 47 40 41
56 55 53 52 48 43 43 46 38 38 35 30 32 29 31 33 33 33 31 45 69 64 60 60 53 47 48 50 50 48 43 41
54 54 52 50 49 45 43 44 37 38 35 28 27 26 28 31 32 34 32 48 66 65 62 56 62 54 52 51 53 54 51 50
54 52 52 50 47 43 42 41 38 38 36 26 21 19 23 29 31 33 32 45 59 70 60 64 59 62 59 61 54 50 51 52

GFSFLT2_250_spd_111.txt.gz
Wind_Speed
46 49 53 57 52 46 44 43 45 44 44 41 34 31 32 30 29 30 31 34 35 31 30 31 35 29 27 35 34 35 36 39
48 50 54 53 49 47 45 45 43 45 41 40 32 30 33 30 30 29 30 34 36 33 34 31 36 30 30 36 34 34 35 33
48 50 54 50 48 49 51 43 42 42 41 40 32 28 32 34 31 31 33 37 38 36 35 33 39 36 36 37 36 33 34 26
50 51 52 50 50 51 52 44 42 41 42 39 32 32 31 32 33 33 34 35 37 36 37 38 39 42 42 41 36 30 30 29
51 51 51 47 49 50 52 47 43 42 45 37 33 33 31 29 33 35 34 36 39 40 42 35 39 45 42 41 37 31 26 28
53 54 51 46 48 52 53 49 43 42 48 40 36 34 31 31 34 35 38 38 39 39 38 36 38 47 43 44 37 35 31 27
53 57 53 49 47 44 49 50 43 44 47 42 37 33 32 31 32 35 37 37 34 33 32 35 38 48 44 47 42 43 32 32
56 56 54 48 48 44 48 48 47 46 46 43 40 36 31 30 32 33 34 31 32 31 32 34 35 39 44 47 45 37 32 34
55 57 53 51 48 47 49 46 47 51 45 45 42 39 33 33 32 32 31 32 33 30 32 32 35 40 49 48 43 37 35 34
55 55 56 53 46 46 47 48 53 52 45 45 43 38 33 32 33 31 30 32 32 32 33 34 36 46 53 51 42 39 33 29
57 58 57 53 51 50 55 53 56 53 46 44 40 40 34 30 33 32 29 33 33 28 24 31 37 50 58 54 42 43 34 29
59 60 58 56 58 59 59 54 57 53 46 45 42 38 35 31 31 30 29 30 27 18 15 17 29 48 57 51 46 44 36 34
62 61 60 60 59 54 56 51 53 55 44 44 43 42 36 34 32 29 28 26 25 28 18 18 19 40 51 45 43 41 35 36
62 60 60 59 52 48 50 51 51 53 47 44 43 43 37 35 32 29 27 27 24 27 19 22 28 41 39 42 40 39 39 38
63 61 58 56 57 55 52 50 49 51 48 44 44 42 37 36 32 29 30 28 21 32 27 28 33 43 45 42 48 44 45 42
60 63 65 59 61 60 56 52 49 50 49 43 42 39 35 36 32 31 33 29 22 38 35 34 36 43 49 43 43 42 41 38
61 65 65 61 61 62 59 54 50 49 49 44 42 38 34 37 33 33 34 34 27 43 43 49 42 44 48 51 43 49 46 47
65 61 61 61 62 60 60 56 50 48 49 46 43 38 34 37 34 36 37 35 34 29 55 50 55 46 50 47 54 50 48 50
59 58 60 61 61 57 59 54 50 47 47 47 42 37 34 35 32 34 37 36 35 32 50 56 57 52 57 50 52 53 49 42
55 57 60 60 56 54 54 53 52 49 47 46 41 36 33 31 23 30 34 36 35 32 43 62 63 60 56 59 54 51 52 52

GFSFLT2_250_spd_114.txt.gz
Wind_Speed
40 42 41 41 45 44 48 47 45 42 42 41 43 39 40 35 34 29 27 28 30 31 31 28 28 27 25 31 37 29 25 28
43 44 44 45 49 50 51 49 45 42 41 43 43 41 43 37 34 31 31 28 30 31 31 26 27 29 29 29 31 23 22 21
45 45 46 45 48 52 54 52 47 43 43 41 41 40 42 37 34 35 35 33 34 35 33 34 32 32 33 35 40 33 26 29
46 48 50 47 49 51 53 52 50 47 43 42 43 37 38 39 34 35 37 35 35 32 34 36 35 30 35 36 39 40 30 27
46 49 51 51 50 51 53 54 51 47 44 42 37 35 37 35 33 34 35 35 36 36 35 37 37 34 35 40 39 40 34 27
48 50 54 55 53 53 51 52 52 48 46 44 39 38 37 36 33 35 35 37 38 37 36 37 37 36 34 38 40 39 36 32
50 53 57 54 54 53 48 52 49 49 49 48 42 41 41 41 37 33 37 36 35 37 34 36 36 36 34 38 41 40 40 27
51 56 55 52 54 53 50 49 51 49 51 50 48 44 43 42 34 33 33 34 33 34 33 32 31 30 30 33 44 43 41 28
55 56 54 55 55 55 50 48 49 49 49 52 55 51 45 42 36 35 33 31 32 32 29 30 32 32 30 32 39 43 43 40
59 58 55 56 56 55 52 50 47 51 53 54 56 53 45 45 38 37 34 29 31 30 33 30 30 31 31 33 35 45 48 44
63 58 56 57 55 54 53 55 52 52 56 57 57 51 44 45 38 37 37 33 34 30 30 31 31 35 37 36 39 49 51 42
56 57 55 58 59 57 57 56 55 53 54 55 53 49 44 42 39 38 37 36 33 30 29 27 26 21 26 40 45 53 50 42
59 58 58 60 62 60 58 57 57 57 50 51 51 48 46 42 41 40 37 35 34 30 27 29 25 25 20 25 49 54 50 43
60 61 61 63 63 65 60 57 57 54 54 53 53 48 46 41 42 42 37 34 34 30 28 28 31 25 26 24 42 54 45 42
66 64 65 64 64 67 60 58 58 58 57 57 53 51 48 41 40 44 37 32 33 29 28 29 34 23 25 17 32 49 47 39
68 70 70 69 68 65 61 61 61 59 61 56 56 50 49 43 40 44 36 31 33 29 29 28 28 23 22 24 35 42 45 39
70 71 70 68 66 64 62 64 63 61 58 57 55 52 50 43 40 42 37 32 34 30 32 30 33 30 27 32 39 43 44 42
69 71 68 66 66 63 61 62 60 59 59 60 60 52 50 45 41 41 39 34 35 34 32 31 42 39 34 32 40 41 40 45
64 64 65 68 67 62 58 59 61 58 57 56 57 50 50 48 41 41 39 34 35 35 36 39 44 49 44 42 36 48 42 44
63 67 69 70 62 61 57 56 57 54 53 54 53 50 52 49 42 39 37 32 33 34 34 33 41 51 54 46 42 42 45 46

GFSFLT2_250_spd_117.txt.gz
Wind_Speed
36 35 34 36 37 37 38 38 39 40 41 45 43 44 39 40 39 40 33 32 31 31 30 26 26 27 25 23 29 33 31 31
36 37 36 37 40 40 41 40 41 43 42 46 46 42 41 38 37 38 38 32 33 35 32 29 27 27 27 25 29 29 29 27
35 39 39 39 42 43 44 42 42 44 44 45 45 40 40 37 36 36 38 36 36 38 39 37 32 32 30 29 29 33 24 21
38 40 41 41 44 46 45 48 46 46 44 46 43 41 41 38 33 36 38 38 35 37 38 38 34 33 33 32 33 37 35 36
44 45 41 42 44 47 48 51 53 49 44 45 46 43 42 40 37 37 40 40 37 36 36 35 35 32 34 33 32 35 39 38
48 47 42 45 47 45 47 51 52 49 45 44 48 44 45 44 44 40 40 39 37 35 36 38 38 34 35 37 33 38 40 39
55 48 49 49 49 50 49 52 47 46 48 46 52 47 47 47 48 45 40 41 37 35 35 37 36 34 32 34 36 37 40 37
57 48 49 46 46 51 54 54 47 48 49 51 52 48 47 47 49 48 45 40 38 32 33 33 35 33 35 32 31 31 38 41
56 52 53 53 54 55 54 56 48 45 49 52 50 48 50 50 45 45 43 38 37 31 33 31 36 32 32 31 34 32 31 42
50 51 57 59 59 57 55 53 46 46 52 54 55 50 49 49 41 43 40 40 35 33 30 30 34 34 35 31 31 32 32 39
60 55 56 57 56 53 52 46 48 49 52 53 56 51 48 50 42 42 42 40 38 34 30 30 35 34 33 33 33 35 32 37
52 51 52 51 54 53 51 47 47 52 53 56 57 54 50 50 48 44 42 41 39 36 31 31 34 33 32 31 29 37 39 34
49 43 48 50 57 56 48 49 52 53 52 57 59 56 53 53 53 45 44 44 40 36 33 32 34 31 30 33 28 26 41 35
56 55 51 50 53 55 53 53 54 60 57 57 57 56 57 54 55 49 44 43 41 37 32 31 34 31 29 32 29 25 29 42
59 61 60 54 56 59 57 54 55 60 59 56 54 53 58 56 57 51 43 41 41 37 31 31 32 31 31 32 34 28 31 47
59 58 57 56 57 55 55 56 60 62 59 57 54 56 57 56 55 52 47 41 42 38 31 31 29 29 30 31 31 28 27 39
62 62 57 58 57 56 54 58 65 64 58 57 55 54 55 54 56 56 46 42 43 41 33 33 32 28 27 32 30 28 26 36
63 63 58 59 59 57 60 60 60 60 59 59 55 54 56 53 53 55 48 40 43 42 34 35 33 30 32 35 35 30 29 35
67 65 66 64 60 60 59 55 57 58 61 57 55 56 55 52 51 54 48 43 44 43 34 35 33 32 34 34 36 37 35 38
69 70 70 63 66 62 60 57 60 61 60 53 54 53 54 52 55 55 47 42 45 44 35 35 34 32 32 43 36 42 38 43

GFSFLT2_250_spd_123.txt.gz
Wind_Speed
35 34 31 34 35 33 30 29 29 28 27 27 27 28 28 29 31 33 36 44 43 39 37 37 35 30 30 32 29 28 26 25
35 33 33 35 35 32 31 30 30 28 27 26 27 27 30 30 32 36 39 44 42 41 40 37 35 32 30 33 32 31 28 28
37 33 33 37 39 34 33 34 33 31 30 28 27 29 33 32 35 37 40 44 45 41 41 39 38 33 26 26 28 31 30 25
37 40 40 40 40 37 36 35 36 36 36 32 32 36 36 37 38 38 42 44 45 38 41 40 39 36 31 25 29 31 31 29
42 43 46 44 43 41 40 41 40 40 41 38 38 38 35 38 39 41 43 43 45 40 40 40 39 38 32 28 26 30 29 29
49 47 47 45 43 42 42 45 44 45 45 43 41 36 37 40 42 41 39 42 44 42 40 42 40 36 34 29 27 27 29 30
47 50 52 49 47 47 48 49 49 47 49 46 42 38 39 41 39 39 38 42 45 44 42 41 39 36 32 30 27 27 30 30
52 46 48 53 51 51 51 53 55 52 52 51 44 40 41 43 41 38 39 43 46 46 43 42 40 34 32 30 29 30 29 29
58 55 50 49 55 54 54 54 55 56 57 51 45 43 42 44 42 38 40 43 46 47 43 41 40 36 32 30 30 31 26 28
65 62 55 53 54 55 58 57 57 58 53 49 48 45 45 46 43 37 40 44 47 47 46 44 40 39 35 33 30 31 29 29
68 66 65 59 57 53 51 54 54 52 51 48 49 49 50 44 41 36 42 45 46 48 50 46 42 40 36 33 31 32 32 29
74 70 70 67 62 57 55 57 56 53 51 51 50 48 45 44 41 41 43 45 46 47 50 48 44 39 39 33 31 32 32 28
78 73 72 69 67 61 61 60 59 58 54 52 47 46 45 43 44 44 44 45 47 47 49 49 46 40 39 34 34 31 32 29
80 77 75 72 70 65 64 62 59 58 53 48 49 44 45 44 47 46 45 47 49 49 48 47 47 40 40 36 34 33 31 30
78 80 79 77 72 67 63 61 58 54 49 51 48 49 48 47 47 45 48 50 50 51 48 46 45 42 42 40 31 33 31 30
70 77 77 77 73 66 62 59 58 58 55 56 56 52 50 50 49 48 50 50 52 50 49 48 46 39 43 41 29 32 33 31
65 71 78 78 74 69 63 60 54 50 59 66 61 58 57 51 47 46 51 51 52 51 51 49 45 42 41 41 31 28 34 31
64 71 78 80 77 73 66 52 51 60 67 64 65 63 56 53 47 49 52 54 53 50 52 49 45 42 43 40 32 28 33 32
68 69 77 77 77 73 69 68 67 70 72 70 66 65 61 55 48 47 51 53 52 52 52 49 44 44 45 40 35 29 32 34
71 74 76 78 80 80 77 75 78 76 75 73 71 66 62 58 58 56 57 55 53 52 50 45 44 44 44 38 34 29 31 37